Kingman, AZ

2:53 AM MST on October 17, 2017 (GMT -0700)
Kingman

Weather History for KIGM - December, 2012

Change the Weather History Date:

Monday, December 24, 2012

  Actual Average Record
Temperature  
Mean Temperature 44 °F 42 °F  
Max Temperature 54 °F 53 °F 75 °F (1950)
Min Temperature 34 °F 31 °F 12 °F (1990)
Degree Days  
Heating Degree Days 21 23  
Month to date heating degree days 466 525  
Since 1 July heating degree days 874 1091  
Cooling Degree Days 0 0  
Month to date cooling degree days 0 0  
Year to date cooling degree days 2297 2093  
Moisture  
Dew Point 27 °F    
Average Humidity 50    
Maximum Humidity 75    
Minimum Humidity 25    
Precipitation  
Precipitation T in 0.02 in 1.57 in (1945)
Month to date precipitation 0.61 0.55  
Year to date precipitation 7.49 8.20  
Sea Level Pressure  
Sea Level Pressure 29.88 in    
Wind  
Wind Speed 14 mph (WSW)    
Max Wind Speed 30 mph    
Max Gust Speed 36 mph    
Visibility 10 miles    
Events      
T = Trace of Precipitation, MM = Missing Value Source: NWS Daily Summary

Daily Weather History Graph

Daily Weather History Graph

Search for Another Location

Airport or City:

Trip Planner

Search our weather history database for the weather conditions in past years. The results will help you decide how hot, cold, wet, or windy it might be!

Date:

Astronomy

Dec. 24, 2012 Rise Set
Actual Time 7:42 AM MST 5:29 PM MST
Civil Twilight 7:13 AM MST 5:57 PM MST
Nautical Twilight 6:42 AM MST 6:29 PM MST
Astronomical Twilight 6:11 AM MST 7:00 PM MST
Moon 2:56 PM MST (12/24) 4:27 AM MST (12/24)
Length of Visible Light 10h 43m
Length of Day
9h 47m
Waxing Gibbous, 89% of the Moon is Illuminated
Dec 24
Waxing Gibbous
Dec 28
Full
Jan 4
Last Quarter
Jan 11
New
Jan 18
First Quarter

Hourly Weather History & Observations

Time (MST) Temp. Windchill Dew Point Humidity Pressure Visibility Wind Dir Wind Speed Gust Speed Precip Events Conditions
12:51 AM 35.1 °F 28.6 °F 28.0 °F 76% 29.92 in 10.0 mi ESE 8.1 mph - N/A   Unknown
1:51 AM 41.0 °F 35.2 °F 28.0 °F 60% 29.89 in 10.0 mi SE 9.2 mph - N/A   Clear
2:51 AM 37.9 °F 32.7 °F 28.9 °F 70% 29.87 in 10.0 mi SE 6.9 mph - N/A   Clear
3:51 AM 39.9 °F 36.7 °F 28.9 °F 65% 29.87 in 10.0 mi SE 4.6 mph - N/A   Clear
4:51 AM 42.1 °F 39.2 °F 28.0 °F 58% 29.85 in 10.0 mi South 4.6 mph - N/A   Mostly Cloudy
5:51 AM 41.0 °F 38.0 °F 27.0 °F 57% 29.86 in 10.0 mi WNW 4.6 mph - N/A   Mostly Cloudy
6:51 AM 45.0 °F 42.6 °F 32.0 °F 60% 29.86 in 10.0 mi SSE 4.6 mph - N/A   Overcast
7:51 AM 46.9 °F - 35.1 °F 63% 29.85 in 10.0 mi West 8.1 mph - N/A   Overcast
8:51 AM 50.0 °F - 35.1 °F 57% 29.84 in 10.0 mi SW 19.6 mph 27.6 mph N/A   Overcast
9:51 AM 48.0 °F - 34.0 °F 58% 29.87 in 10.0 mi WSW 16.1 mph - 0.00 in   Mostly Cloudy
10:51 AM 53.1 °F - 35.1 °F 50% 29.88 in 10.0 mi SW 21.9 mph 32.2 mph N/A   Mostly Cloudy
11:51 AM 53.1 °F - 35.1 °F 50% 29.86 in 10.0 mi SW 23.0 mph 34.5 mph N/A   Clear
12:51 PM 53.1 °F - 36.0 °F 52% 29.86 in 10.0 mi SW 19.6 mph 27.6 mph N/A   Clear
1:51 PM 54.0 °F - 36.0 °F 51% 29.82 in 10.0 mi SW 18.4 mph 27.6 mph N/A   Clear
2:51 PM 54.0 °F - 35.1 °F 49% 29.81 in 10.0 mi SW 21.9 mph 27.6 mph N/A   Clear
3:51 PM 54.0 °F - 35.1 °F 49% 29.81 in 10.0 mi WSW 15.0 mph - N/A   Mostly Cloudy
4:51 PM 53.1 °F - 35.1 °F 50% 29.81 in - SW 11.5 mph - N/A   Unknown
5:51 PM 50.0 °F - 23.0 °F 35% 29.85 in 10.0 mi WNW 10.4 mph 18.4 mph N/A   Clear
6:51 PM 46.9 °F - 19.0 °F 33% 29.87 in 10.0 mi NNW 8.1 mph - N/A   Clear
7:51 PM 46.0 °F 38.8 °F 21.9 °F 39% 29.91 in 10.0 mi North 18.4 mph - N/A   Clear
8:51 PM 44.1 °F 35.9 °F 18.0 °F 35% 29.94 in 10.0 mi NNW 19.6 mph 32.2 mph N/A   Clear
9:51 PM 42.1 °F 33.1 °F 10.9 °F 28% 29.96 in 10.0 mi NNW 20.7 mph 32.2 mph N/A   Clear
10:51 PM 39.9 °F 31.4 °F 7.0 °F 26% 29.99 in 10.0 mi NNW 16.1 mph 24.2 mph N/A   Clear
11:51 PM 37.0 °F 27.7 °F 9.0 °F 31% 30.01 in 10.0 mi NNW 16.1 mph 20.7 mph N/A   Clear